Home   Weather   Ponta Delgada   Past weeks

Flag for Portugal Past Weather in Ponta Delgada, Azores, Portugal — Yesterday and Last 2 Weeks

Now
73 °F

Passing clouds.


Feels Like: 74 °F
Forecast: 68 / 76 °F
Wind: 7 mph from North

Location: Ponta Delgada / Nordela Acores

Current Time: Jul 24, 2017 at 9:01:00 pm

Latest Report: Jul 24, 2017 at 8:00 pm


Visibility: N/A

Pressure: 30.45 "Hg

Humidity: 78%

Dew Point: 66 °F

Location of Ponta DelgadaLocation

Past Weather in Ponta Delgada — Graph

°F

Ponta Delgada Temperature Yesterday

Maximum temperature yesterday: 75 °F (at 2:30 pm)
Minimum temperature yesterday: 70 °F (at 12:00 am)
Average temperature yesterday: 72 °F

High & Low Weather Summary for the Past Weeks

 TemperatureHumidityPressure
High77 °F (Jul 11, 1:30 pm)100% (Jul 12, 2:00 am)30.48 "Hg (Jul 12, 2:00 am)
Low63 °F (Jul 11, 5:00 am)54% (Jul 14, 3:30 pm)30.09 "Hg (Jul 18, 5:30 am)
Average70 °F81%30.31 "Hg
* Reported Jul 9 8:00 pm — Jul 24 8:00 pm, Ponta Delgada. Weather by CustomWeather, © 2017

Note: Actual official high and low records may vary slightly from our data, if they occured in-between our weather recording intervals... More about our weather records

Advertising

Ponta Delgada Weather History for the Previous 24 Hours

Scroll right to see more
 ConditionsComfort  
Time TempWeatherWind HumidityBarometerVisibility
8:00 pm
Mon, Jul 24
73 °FPassing clouds.7 mph78%30.45 "HgN/A
7:30 pm73 °FPassing clouds.6 mph83%30.45 "HgN/A
7:00 pm73 °FPassing clouds.7 mph78%30.45 "HgN/A
6:30 pm73 °FPassing clouds.12 mph83%30.45 "HgN/A
6:00 pm75 °FPassing clouds.13 mph78%30.45 "HgN/A
5:30 pm75 °FPassing clouds.12 mph78%30.45 "HgN/A
5:00 pm75 °FScattered clouds.12 mph78%30.45 "HgN/A
4:30 pm73 °FScattered clouds.9 mph83%30.45 "HgN/A
4:00 pm73 °FScattered clouds.12 mph83%30.45 "HgN/A
3:30 pm73 °FScattered clouds.10 mph83%30.45 "HgN/A
3:00 pm73 °FScattered clouds.9 mph83%30.45 "HgN/A
2:30 pm73 °FScattered clouds.10 mph83%30.45 "HgN/A
2:00 pm73 °FScattered clouds.12 mph83%30.48 "HgN/A
1:30 pm73 °FPassing clouds.10 mph83%30.45 "HgN/A
1:00 pm73 °FPassing clouds.10 mph83%30.45 "HgN/A
12:30 pm75 °FPassing clouds.9 mph78%30.48 "HgN/A
12:00 pm73 °FPassing clouds.8 mph83%30.48 "HgN/A
11:30 am73 °FPassing clouds.8 mph83%30.48 "HgN/A
11:00 am73 °FPassing clouds.7 mph83%30.45 "HgN/A
10:30 am73 °FPassing clouds.7 mph78%30.48 "HgN/A
10:00 am73 °FScattered clouds.6 mph78%30.48 "HgN/A
9:30 am72 °FPartly sunny.3 mph83%30.48 "HgN/A
9:00 am72 °FPartly sunny.3 mph83%30.48 "HgN/A
8:30 am72 °FPartly sunny.3 mph83%30.48 "HgN/A
8:00 am70 °FPartly sunny.3 mph88%30.48 "HgN/A
7:30 am68 °FPartly sunny.1 mph88%30.45 "HgN/A
7:00 am68 °FPartly sunny.3 mph88%30.45 "HgN/A
6:30 am68 °FPassing clouds.5 mph94%30.45 "HgN/A
6:00 am68 °FPassing clouds.5 mph94%30.42 "HgN/A
5:30 am68 °FPassing clouds.2 mph94%30.42 "HgN/A
4:30 am70 °FPartly cloudy.1 mph94%30.42 "HgN/A
4:00 am70 °FPartly cloudy.3 mph94%30.42 "HgN/A
3:30 am70 °FPartly cloudy.3 mph94%30.42 "HgN/A
3:00 am70 °FPartly cloudy.6 mph94%30.42 "HgN/A
2:30 am70 °FPartly cloudy.7 mph94%30.45 "HgN/A
2:00 am70 °FPartly cloudy.6 mph94%30.45 "HgN/A
1:30 am70 °FSprinkles. Partly cloudy.5 mph94%30.45 "HgN/A
1:00 am72 °FPartly cloudy.5 mph88%30.45 "HgN/A
12:30 am72 °FPartly cloudy.5 mph88%30.45 "HgN/A
11:30 pm
Sun, Jul 23
72 °FPassing clouds.2 mph88%30.45 "HgN/A
11:00 pm72 °FPassing clouds.2 mph88%30.45 "HgN/A
10:30 pm72 °FPassing clouds.2 mph88%30.45 "HgN/A
10:00 pm72 °FPassing clouds.3 mph88%30.45 "HgN/A
9:30 pm72 °FPassing clouds.5 mph88%30.45 "HgN/A
9:00 pm72 °FPassing clouds.5 mph88%30.42 "HgN/A
Weather by CustomWeather, © 2017

See weather overviewHow to use our weather pages